Flag for Australia Weather past 2 weeks in Mount Isa, Queensland, Australia

Now
93 °F

Sunny.


Feels Like: 91 °F
Forecast: 78 / 99 °F
Wind: 17 mph from Southeast

Location: Mount Isa Amo

Current Time: Dec 20, 2014 at 9:54:56 AM

Latest Report: Dec 20, 2014 at 9:00 AM


Visibility: N/A

Pressure: 29.89 "Hg

Humidity: 26%

Dew point: 54 °F

Location of Mount IsaLocation

Historic Weather in Mount Isa — Graph

°F

Mount Isa temperature yesterday

Maximum temperature yesterday: 99 °F (at 3:00 PM)
Minimum temperature yesterday: 70 °F (at 6:00 AM)
Average temperature yesterday: 88 °F

Past Weeks' High & Low Weather Summary

 TemperatureHumidityPressure
High109 °F (Dec 16, 4:00 PM)100% (Dec 14, 11:00 PM)29.95 "Hg (Dec 14, 11:00 PM)
Low63 °F (Dec 15, 5:00 AM)5% (Dec 14, 2:30 PM)29.62 "Hg (Dec 6, 4:30 PM)
Average88 °F45%29.77 "Hg
* Reported Dec 5 9:00 AM — Dec 20 9:00 AM, Mount Isa, Weather by CustomWeather, © 2014

Note: Actual official high and low records may vary slightly from our data, if they occured in-between our weather recording intervals... More about our weather records

Advertising

Mount Isa weather history for previous 24 hours

 ConditionsComfort  
Time TempWeatherWind HumidityBarometerVisibility
9:00 AM
Dec 20
93 °FSunny.17 mph26%29.89 "HgN/A
8:30 AM91 °FSunny.16 mph28%29.89 "HgN/A
8:00 AM90 °FSunny.12 mph27%29.89 "HgN/A
7:00 AM86 °FSunny.9 mph27%29.89 "HgN/A
6:30 AM82 °FSunny.7 mph26%29.86 "HgN/A
6:00 AM82 °FSunny.8 mph26%29.86 "HgN/A
5:30 AM82 °FSunny.8 mph26%29.86 "HgN/A
5:00 AM82 °FSunny.9 mph26%29.83 "HgN/A
4:30 AM84 °FClear.13 mph23%29.83 "HgN/A
4:00 AM84 °FClear.9 mph25%29.83 "HgN/A
3:30 AM86 °FPassing clouds.12 mph24%29.83 "HgN/A
3:00 AM86 °FClear.12 mph24%29.83 "HgN/A
2:30 AM86 °FClear.8 mph24%29.83 "HgN/A
2:00 AM86 °FClear.10 mph24%29.83 "HgN/A
1:30 AM86 °FClear.10 mph25%29.86 "HgN/A
1:00 AM86 °FClear.10 mph27%29.86 "HgN/A
12:30 AM88 °FClear.10 mph25%29.86 "HgN/A
12:00 AM88 °FClear.8 mph25%29.89 "HgN/A
11:30 PM
Dec 19
88 °FClear.9 mph25%29.89 "HgN/A
11:00 PM90 °FClear.10 mph22%29.89 "HgN/A
10:00 PM90 °FClear.9 mph22%29.89 "HgN/A
9:30 PM91 °FClear.13 mph23%29.89 "HgN/A
9:00 PM91 °FClear.12 mph30%29.86 "HgN/A
8:30 PM91 °FClear.13 mph32%29.86 "HgN/A
8:00 PM91 °FClear.14 mph32%29.86 "HgN/A
7:30 PM93 °FClear.12 mph30%29.83 "HgN/A
7:00 PM93 °FClear.14 mph28%29.83 "HgN/A
6:30 PM95 °FPassing clouds.14 mph28%29.80 "HgN/A
6:00 PM97 °FSunny.14 mph27%29.80 "HgN/A
5:00 PM99 °FScattered clouds.10 mph25%29.80 "HgN/A
4:00 PM97 °FScattered clouds.7 mph27%29.80 "HgN/A
3:30 PM97 °FSunny.8 mph27%29.83 "HgN/A
3:00 PM99 °FScattered clouds.8 mph25%29.83 "HgN/A
2:30 PM95 °FSunny.6 mph28%29.86 "HgN/A
2:00 PM97 °FScattered clouds.7 mph27%29.86 "HgN/A
1:30 PM97 °FSunny.6 mph28%29.86 "HgN/A
1:00 PM95 °FSunny.6 mph30%29.89 "HgN/A
12:30 PM93 °FSunny.6 mph32%29.89 "HgN/A
12:00 PM95 °FSunny.5 mph30%29.92 "HgN/A
11:30 AM93 °FSunny.9 mph32%29.92 "HgN/A
11:00 AM91 °FSunny.7 mph34%29.95 "HgN/A
10:30 AM90 °FSunny.7 mph38%29.95 "HgN/A
10:00 AM88 °FSunny.6 mph40%29.95 "HgN/A
9:30 AM86 °FSunny.6 mph46%29.95 "HgN/A
9:00 AM84 °FSunny.7 mph48%29.95 "HgN/A
Weather by CustomWeather, © 2014

See weather overviewHow to use our weather pages